This is the latest recevied weather packets stored in our database for station/object K7PMV-13. If no packets are shown the sender has not sent any weather packets the latest 10 day(s).
| Time | Temp. | Humidity | Pressure | Rain* | Wind** | Luminosity | Snow |
|---|---|---|---|---|---|---|---|
| 1777906843 | 22.78° C | 41% | 1007.7 hPa | 0 mm | - | 213 W/m² | - |
| 1777906526 | 22.22° C | 43% | 1007.7 hPa | 0 mm | - | 188 W/m² | - |
| 1777906208 | 22.22° C | 46% | 1007.7 hPa | 0 mm | - | 174 W/m² | - |
| 1777905883 | 22.22° C | 47% | 1007.7 hPa | 0 mm | - | 146 W/m² | - |
| 1777905568 | 21.67° C | 48% | 1007.6 hPa | 0 mm | - | 120 W/m² | - |
| 1777905236 | 21.67° C | 48% | 1007.7 hPa | 0 mm | - | 107 W/m² | - |
| 1777904922 | 21.67° C | 49% | 1007.7 hPa | 0 mm | - | 109 W/m² | - |
| 1777904606 | 21.67° C | 49% | 1007.5 hPa | 0 mm | - | 109 W/m² | - |
| 1777904291 | 21.67° C | 48% | 1007.6 hPa | 0 mm | - | 91 W/m² | - |
| 1777903976 | 21.67° C | 48% | 1007.3 hPa | 0 mm | - | 81 W/m² | - |
| 1777903658 | 21.67° C | 48% | 1007.3 hPa | 0 mm | - | 76 W/m² | - |
| 1777903343 | 21.67° C | 48% | 1007.3 hPa | 0 mm | - | 74 W/m² | - |
| 1777903025 | 21.67° C | 48% | 1007.4 hPa | 0 mm | - | 67 W/m² | - |
| 1777902702 | 21.11° C | 48% | 1007.4 hPa | 0 mm | - | 56 W/m² | - |
| 1777902381 | 21.11° C | 48% | 1007.4 hPa | 0 mm | - | 47 W/m² | - |
| 1777902054 | 21.11° C | 48% | 1007.6 hPa | 0 mm | - | 39 W/m² | - |
| 1777901739 | 21.11° C | 49% | 1007.7 hPa | 0 mm | - | 35 W/m² | - |
| 1777901421 | 21.11° C | 49% | 1007.6 hPa | 0 mm | - | 30 W/m² | - |
| 1777901093 | 21.11° C | 50% | 1007.6 hPa | 0 mm | - | 26 W/m² | - |
| 1777900779 | 21.11° C | 50% | 1007.4 hPa | 0 mm | - | 26 W/m² | - |
| 1777900464 | 21.11° C | 49% | 1007.3 hPa | 0 mm | - | 28 W/m² | - |
| 1777900144 | 21.11° C | 49% | 1007.1 hPa | 0 mm | - | 28 W/m² | - |
| 1777899829 | 21.11° C | 49% | 1007.1 hPa | 0 mm | - | 23 W/m² | - |
| 1777899514 | 21.11° C | 48% | 1006.8 hPa | 0 mm | - | 16 W/m² | - |
| 1777899194 | 21.11° C | 48% | 1006.7 hPa | 0 mm | - | 12 W/m² | - |
* Rain latest hour (hover to see other rain measurements)
** Current wind speed in m/s (hover to see current wind gust speed)